Location: Bu�n Treun
(12.1333°N, 108.3167°E)
Time: 23:52:44
(UTC+00:00)

Cosmos 1812 Rocket - Pass Details

Date: 13 July 2020
Orbit: 605 x 633 km, 82.5° (Epoch: 03 August)

Event Time Altitude Azimuth Distance (km) Brightness Sun altitude
Rises 12:59:25 0° 349° (N) 2,850 7.5 -23.6°
Reaches altitude 10° 13:01:39 10° 346° (NNW) 1,948 6.7 -24.0°
Maximum altitude 13:05:52 58° 267° (W) 706 4.0 -24.9°
Enters shadow 13:06:38 50° 224° (SW) 779 4.0 -25.1°
